SENTINEL-3B

Last updated on Sun Jun 21 2026 00:02:47 GMT+0000 (Coordinated Universal Time)

1 43437U 18039A 26171.41568603 .00000074 00000+0 48499-4 0 9990 2 43437 98.6248 238.9017 0000727 94.6800 265.4463 14.26735540424583
UTC large
Height (km)
Speed (km/s)
/
Latitude / Longitude
Inclination (degrees)
Orbital Period (minutes)
Azimuth
Elevation
Range (km)
Doppler Factor

Next 0 passes for location: London (51.5072 / 0.1276)

No passes found over London.
SENTINEL-3B